• Join FlightAware (Why Join?)
  • Login
  • US Flag GB Flag 
16:07 EST


 

Airport Tracker/Info


-or-


 

Live Flight TrackerFlight Track Log ✈ DAL268 ✈ 25-May-2013 ✈ KATL - KJFK

Flight Track Log - Related Links

Times and Time Zones

All times are in EDT time to prevent confusion due to time zone crossing. See the DAL268 flight status page for this flight to view local times or setup timezone preferences in your user account.

Time Position Orientation Groundspeed Altitude Reporting Facility
EDT Latitude Longitude Course Direction KTS MPH feet Rate Location/Type
19:48 33.6333 -84.4667 64° Northeast 175 201 2,200  Level Atlanta TRACON
19:49 33.6167 -84.5333 253° West 253 291 3,600 2,100 Climbing Atlanta TRACON
19:50 33.5667 -84.5833 220° Southwest 283 326 6,300 2,220 Climbing Atlanta TRACON
19:51 33.7145 -84.0199 101° East  Level FlightAware Approximate
19:52 33.6922 -83.8859 101° East  Level FlightAware Approximate
19:52 33.4533 -84.4894 145° Southeast 270 311 10,300  Level Atlanta Center
19:53 33.6698 -83.7519 101° East  Level FlightAware Approximate
19:53 33.4578 -84.3600 88° East 338 389 11,600  Level Atlanta Center
19:54 33.6558 -83.6192 64° Northeast  Level FlightAware Approximate
19:54 33.4811 -84.2256 78° East 390 449 14,100  Level Atlanta Center
19:55 33.5311 -84.1036 64° Northeast 397 457 16,700 2,100 Climbing Atlanta Center
19:56 33.5833 -83.9739 64° Northeast 418 481 18,300 1,500 Climbing Atlanta Center
19:57 33.6228 -83.8317 72° East 437 503 19,800 1,500 Climbing Atlanta Center
19:58 33.6517 -83.6794 77° East 449 517 21,400 1,680 Climbing Atlanta Center
19:59 33.7033 -83.5319 67° East 463 533 23,200 2,160 Climbing Atlanta Center
20:00 33.7633 -83.3892 63° Northeast 468 539 25,800 1,860 Climbing Atlanta Center
20:01 33.8167 -83.2536 65° Northeast 451 519 27,000 660 Climbing Atlanta Center
20:02 33.8742 -83.1156 63° Northeast 451 519 27,200 600 Climbing Atlanta Center
20:03 33.9336 -82.9622 65° Northeast 446 513 28,300 900 Climbing Atlanta Center
20:04 33.9886 -82.8236 64° Northeast 459 528 29,000 300 Climbing Atlanta Center
20:05 34.0475 -82.6775 64° Northeast 465 535 29,000  Level Atlanta Center
20:06 34.1044 -82.5336 64° Northeast 470 541 29,000  Level Atlanta Center
20:07 34.1547 -82.4019 65° Northeast 465 535 29,000  Level Atlanta Center
20:08 34.2133 -82.2553 64° Northeast 471 542 29,000  Level Atlanta Center
20:09 34.2717 -82.1108 64° Northeast 471 542 29,000  Level Atlanta Center
20:10 34.3406 -81.9758 58° Northeast 471 542 29,000  Level Atlanta Center
20:11 34.4111 -81.8331 59° Northeast 477 549 29,000  Level Atlanta Center
20:12 34.4794 -81.6953 59° Northeast 477 549 29,000  Level Atlanta Center
20:13 34.5497 -81.5547 59° Northeast 477 549 29,000  Level Atlanta Center
20:14 34.6178 -81.4164 59° Northeast 477 549 29,000  Level Atlanta Center
20:15 34.6917 -81.2675 59° Northeast 471 542 29,000  Level Atlanta Center
20:16 34.7594 -81.1286 59° Northeast 471 542 29,000  Level Atlanta Center
20:17 34.8272 -80.9922 59° Northeast 478 550 29,000  Level Atlanta Center
20:18 34.8922 -80.8506 61° Northeast 478 550 29,000  Level Atlanta Center
20:19 34.9597 -80.7136 59° Northeast 478 550 29,000  Level Atlanta Center
20:20 35.0267 -80.5742 60° Northeast 478 550 29,000  Level Atlanta Center
20:22 35.1350 -80.3489 59° Northeast 477 549 29,000  Level Washington Center
20:23 35.2011 -80.2056 61° Northeast 477 549 29,000  Level Washington Center
20:24 35.2714 -80.0619 59° Northeast 477 549 29,000  Level Washington Center
20:25 35.3389 -79.9231 59° Northeast 477 549 29,000  Level Washington Center
20:26 35.4067 -79.7789 60° Northeast 477 549 29,000  Level Washington Center
20:27 35.4683 -79.6292 63° Northeast 472 543 29,000  Level Washington Center
20:28 35.5133 -79.4681 71° East 487 560 29,000  Level Washington Center
20:29 35.5581 -79.3044 71° East 501 577 29,000  Level Washington Center
20:30 35.6028 -79.1403 71° East 496 571 29,000  Level Washington Center
20:31 35.6469 -78.9786 71° East 496 571 29,000  Level Washington Center
20:32 35.6911 -78.8144 72° East 496 571 29,000  Level Washington Center
20:33 35.7353 -78.6497 72° East 501 577 29,000  Level Washington Center
20:34 35.7789 -78.4825 72° East 501 577 29,000  Level Washington Center
20:35 35.8181 -78.3353 72° East 496 571 29,000  Level Washington Center
20:36 35.8592 -78.1753 72° East 496 571 29,000  Level Washington Center
20:37 35.9000 -78.0100 73° East 496 571 29,000  Level Washington Center
20:38 35.9408 -77.8472 73° East 496 571 29,000  Level Washington Center
20:39 35.9897 -77.6867 69° East 496 571 29,000  Level Washington Center
20:40 36.0689 -77.5578 53° Northeast 469 540 29,000  Level Washington Center
20:41 36.1461 -77.4311 53° Northeast 469 540 29,000  Level Washington Center
20:42 36.2419 -77.3097 46° Northeast 451 519 29,000  Level Washington Center
20:43 36.3392 -77.2139 38° Northeast 439 505 29,000  Level Washington Center
20:44 36.4364 -77.1178 38° Northeast 439 505 29,000  Level Washington Center
20:45 36.5294 -77.0214 40° Northeast 439 505 29,000  Level Washington Center
20:46 36.6286 -76.9222 39° Northeast 439 505 29,000  Level Washington Center
20:47 36.7256 -76.8281 38° Northeast 439 505 29,000  Level Washington Center
20:48 36.8225 -76.7308 39° Northeast 444 511 29,000  Level Washington Center
20:49 36.9192 -76.6336 39° Northeast 444 511 29,000  Level Washington Center
20:50 37.0161 -76.5361 39° Northeast 444 511 29,000  Level Washington Center
20:51 37.1128 -76.4358 40° Northeast 444 511 29,000  Level Washington Center
20:52 37.2008 -76.3453 39° Northeast 449 517 29,000  Level Washington Center
20:53 37.2953 -76.2472 40° Northeast 444 511 29,000  Level Washington Center
20:54 37.4064 -76.1436 37° Northeast 444 511 29,000  Level Washington Center
20:55 37.5028 -76.0447 39° Northeast 444 511 29,000 -60 Level Washington Center
20:56 37.5969 -75.9483 39° Northeast 444 511 28,900  Descending Washington Center
20:57 37.6869 -75.8569 39° Northeast 433 498 29,000  Climbing Washington Center
20:58 37.7747 -75.7625 40° Northeast 423 487 29,000  Level Washington Center
20:59 37.8625 -75.6706 40° Northeast 418 481 29,000  Level Washington Center
21:00 37.9500 -75.5786 40° Northeast 412 474 29,000  Level Washington Center
21:01 38.0397 -75.4889 38° Northeast 407 468 29,000  Level Washington Center
21:02 38.1292 -75.4175 32° Northeast 388 447 29,000  Level Washington Center
21:03 38.2231 -75.3592 26° Northeast 371 427 29,000  Level Washington Center
21:04 38.2978 -75.3114 27° Northeast 371 427 29,000  Level Washington Center
21:05 38.4042 -75.2447 26° Northeast 366 421 29,000  Level Washington Center
21:06 38.4997 -75.1858 26° Northeast 371 427 29,000  Level Washington Center
21:07 38.6100 -75.1189 25° Northeast 385 443 29,000  Level Washington Center
21:08 38.7078 -75.0542 27° Northeast 385 443 29,000  Level Washington Center
21:09 38.8053 -74.9922 26° Northeast 385 443 29,000  Level Washington Center
21:10 38.9031 -74.9300 26° Northeast 385 443 29,000  Level Washington Center
21:11 39.0028 -74.8678 26° Northeast 385 443 29,000 -60 Level Washington Center
21:12 39.1003 -74.8000 28° Northeast 385 443 28,900 -1,500 Descending Washington Center
21:13 39.1892 -74.7106 38° Northeast 397 457 26,100 -2,220 Descending Washington Center
21:15 39.3317 -74.5528 41° Northeast 423 487 22,800 -1,920 Descending New York Center
21:16 39.4117 -74.4628 41° Northeast 397 457 20,800 -2,220 Descending New York Center
21:17 39.4958 -74.3678 41° Northeast 373 429 18,400 -1,440 Descending New York Center
21:18 39.5714 -74.2853 40° Northeast 362 417 18,000 -240 Descending New York Center
21:19 39.6403 -74.2106 40° Northeast 362 417 18,000 -960 Level New York Center
21:20 39.7244 -74.1150 41° Northeast 356 410 16,200 -1,860 Descending New York Center
21:21 39.7975 -74.0375 39° Northeast 350 403 14,300 -1,920 Descending New York Center
21:22 39.8725 -73.9653 36° Northeast 345 397 12,300 -1,680 Descending New York Center
21:23 39.9425 -73.9169 28° Northeast 322 371 11,000 -720 Descending New York Center
21:24 40.0189 -73.8633 28° Northeast 312 359 11,000 -420 Level New York Center
21:25 40.0961 -73.8642 360° North 263 303 10,200 -1,140 Descending New York Center
21:25 40.1500 -73.8667 358° North 247 284 9,100 -1,560 Descending New York TRACON
21:26 40.1833 -73.8000 57° Northeast 292 336 7,400 -1,740 Descending New York TRACON
21:27 40.1500 -73.7000 114° Southeast 311 358 5,700 -1,740 Descending New York TRACON
21:28 40.2000 -73.6500 37° Northeast 243 280 4,100 -1,440 Descending New York TRACON
21:29 40.2500 -73.6167 27° Northeast 242 278 3,000 -900 Descending New York TRACON
21:30 40.2778 -73.5950 31° Northeast 220 253 3,000  Level New York Center
21:31 40.3331 -73.5592 26° Northeast 232 267 3,000  Level New York Center
21:32 40.3981 -73.5344 16° North 231 266 3,100  Climbing New York Center
21:32 40.4333 -73.5333 North 200 230 3,000  Descending New York TRACON
21:33 40.4833 -73.5333 360° North 169 194 3,100  Climbing New York TRACON
21:34 40.5333 -73.5500 346° North 150 173 3,100 -60 Level New York TRACON
21:35 40.5667 -73.5833 323° Northwest 141 162 3,000 -120 Descending New York TRACON